Location: Alta
(39.2070°N, 120.8111°W)
Time: 06:33:33
(UTC+00:00)

CZ-4B DEB - Pass Details

Date: 15 December 2023
Orbit: 838 x 858 km, 99.0° (Epoch: 02 March)

Event Time Altitude Azimuth Distance (km) Brightness Sun altitude
Rises 01:25:26 0° 111° (ESE) 3,425 6.9 -8.5°
Reaches altitude 10° 01:29:11 10° 85° (E) 2,494 6.0 -9.2°
Maximum altitude 01:31:34 13° 59° (ENE) 2,288 5.8 -9.6°
Drops below altitude 10° 01:33:57 10° 33° (NNE) 2,499 6.2 -10.1°
Sets 01:37:43 0° 7° (N) 3,438 7.1 -10.7°
